Time,TemperatureF,DewpointF,PressureIn,WindDirection,WindDirectionDegrees,WindSpeedMPH,WindSpeedGustMPH,Humidity,HourlyPrecipIn,Conditions,Clouds,dailyrainin,SolarRadiationWatts/m^2,SoftwareType,DateUTC
2013-04-04 00:00:00,33.8,12.6,30.06,SSE,148,1.0,8.0,41,0.00,CLR,SCT,0.00,0.0,WeatherDisplay:10.37,2013-04-04 04:00:00,
2013-04-04 00:05:00,33.8,12.6,30.07,SE,133,1.0,3.0,41,0.00,CLR,SCT,0.00,0.0,WeatherDisplay:10.37,2013-04-04 04:05:00,
2013-04-04 00:10:00,33.8,12.6,30.07,East,90,0.0,2.0,41,0.00,CLR,SCT,0.00,0.0,WeatherDisplay:10.37,2013-04-04 04:10:00,
2013-04-04 00:15:00,33.6,12.9,30.07,ESE,103,1.0,2.0,42,0.00,CLR,SCT,0.00,0.0,WeatherDisplay:10.37,2013-04-04 04:15:00,
2013-04-04 00:25:00,33.3,13.1,30.07,SSW,203,1.0,3.0,43,0.00,CLR,SCT,0.00,0.0,WeatherDisplay:10.37,2013-04-04 04:25:00,
2013-04-04 00:30:00,33.1,13.5,30.07,West,280,0.0,4.0,44,0.00,CLR,SCT,0.00,0.0,WeatherDisplay:10.37,2013-04-04 04:30:00,
2013-04-04 00:40:00,33.1,13.5,30.08,NNW,329,1.0,7.0,44,0.00,CLR,SCT,0.00,0.0,WeatherDisplay:10.37,2013-04-04 04:40:00,
2013-04-04 00:45:00,33.1,13.5,30.08,NNW,335,1.0,8.0,44,0.00,CLR,SCT,0.00,0.0,WeatherDisplay:10.37,2013-04-04 04:45:00,
2013-04-04 00:50:00,33.3,13.1,30.08,NNW,331,2.0,6.0,43,0.00,CLR,SCT,0.00,0.0,WeatherDisplay:10.37,2013-04-04 04:50:00,
2013-04-04 00:55:00,33.3,13.1,30.08,NNW,346,0.0,6.0,43,0.00,CLR,SCT,0.00,0.0,WeatherDisplay:10.37,2013-04-04 04:55:00,
2013-04-04 01:00:00,33.1,13.5,30.08,North,7,1.0,5.0,44,0.00,CLR,SCT,0.00,0.0,WeatherDisplay:10.37,2013-04-04 05:00:00,
2013-04-04 01:10:00,33.1,13.5,30.09,NW,306,3.0,8.0,44,0.00,CLR,SCT,0.00,0.0,WeatherDisplay:10.37,2013-04-04 05:10:00,
2013-04-04 01:15:00,33.1,13.5,30.09,NNW,344,1.0,9.0,44,0.00,CLR,SCT,0.00,0.0,WeatherDisplay:10.37,2013-04-04 05:15:00,
2013-04-04 01:25:00,32.9,13.9,30.09,NNW,346,1.0,8.0,45,0.00,CLR,SCT,0.00,0.0,WeatherDisplay:10.37,2013-04-04 05:25:00,
2013-04-04 01:30:00,32.7,13.7,30.09,NNW,340,0.0,3.0,45,0.00,CLR,SCT,0.00,0.0,WeatherDisplay:10.37,2013-04-04 05:30:00,
2013-04-04 01:40:00,32.7,13.7,30.09,North,10,1.0,5.0,45,0.00,CLR,SCT,0.00,0.0,WeatherDisplay:10.37,2013-04-04 05:40:00,
2013-04-04 01:45:00,32.7,13.7,30.09,NNE,30,0.0,4.0,45,0.00,CLR,SCT,0.00,0.0,WeatherDisplay:10.37,2013-04-04 05:45:00,
2013-04-04 01:55:00,32.7,13.2,30.10,ESE,105,0.0,6.0,44,0.00,CLR,SCT,0.00,0.0,WeatherDisplay:10.37,2013-04-04 05:55:00,
2013-04-04 02:00:00,32.6,13.6,30.09,ENE,61,1.0,6.0,45,0.00,CLR,SCT,0.00,0.0,WeatherDisplay:10.37,2013-04-04 06:00:00,
2013-04-04 02:10:00,32.4,13.4,30.10,SSE,154,1.0,4.0,45,0.00,CLR,SCT,0.00,0.0,WeatherDisplay:10.37,2013-04-04 06:10:00,
2013-04-04 02:15:00,32.3,13.8,30.09,SSW,213,1.0,3.0,46,0.00,CLR,SCT,0.00,0.0,WeatherDisplay:10.37,2013-04-04 06:15:00,
2013-04-04 02:25:00,32.2,13.7,30.10,South,184,1.0,6.0,46,0.00,CLR,SCT,0.00,0.0,WeatherDisplay:10.37,2013-04-04 06:25:00,
2013-04-04 02:30:00,32.2,13.7,30.10,NW,309,1.0,6.0,46,0.00,CLR,SCT,0.00,0.0,WeatherDisplay:10.37,2013-04-04 06:30:00,
2013-04-04 02:40:00,32.2,13.7,30.11,North,358,2.0,6.0,46,0.00,CLR,SCT,0.00,0.0,WeatherDisplay:10.37,2013-04-04 06:40:00,
2013-04-04 02:45:00,32.0,13.5,30.10,NNW,343,1.0,6.0,46,0.00,CLR,SCT,0.00,0.0,WeatherDisplay:10.37,2013-04-04 06:45:00,
2013-04-04 02:55:00,31.8,13.4,30.10,NE,36,1.0,6.0,46,0.00,CLR,SCT,0.00,0.0,WeatherDisplay:10.37,2013-04-04 06:55:00,
2013-04-04 03:00:00,31.6,13.7,30.10,East,83,1.0,3.0,47,0.00,CLR,SCT,0.00,0.0,WeatherDisplay:10.37,2013-04-04 07:00:00,
2013-04-04 03:10:00,31.5,14.0,30.10,North,9,1.0,2.0,48,0.00,CLR,SCT,0.00,0.0,WeatherDisplay:10.37,2013-04-04 07:10:00,
2013-04-04 03:15:00,31.1,13.7,30.10,WSW,252,1.0,3.0,48,0.00,CLR,SCT,0.00,0.0,WeatherDisplay:10.37,2013-04-04 07:15:00,
2013-04-04 03:25:00,30.6,15.0,30.09,SW,222,1.0,3.0,52,0.00,CLR,SCT,0.00,0.0,WeatherDisplay:10.37,2013-04-04 07:25:00,
2013-04-04 03:30:00,30.6,14.6,30.09,West,262,0.0,3.0,51,0.00,CLR,SCT,0.00,0.0,WeatherDisplay:10.37,2013-04-04 07:30:00,
2013-04-04 03:40:00,30.6,14.6,30.09,NW,309,1.0,4.0,51,0.00,CLR,SCT,0.00,0.0,WeatherDisplay:10.37,2013-04-04 07:40:00,
2013-04-04 03:45:00,30.4,13.9,30.09,NW,323,1.0,3.0,50,0.00,CLR,SCT,0.00,0.0,WeatherDisplay:10.37,2013-04-04 07:45:00,
2013-04-04 03:55:00,30.6,14.1,30.10,SSW,196,1.0,6.0,50,0.00,CLR,SCT,0.00,0.0,WeatherDisplay:10.37,2013-04-04 07:55:00,
2013-04-04 04:00:00,30.7,14.2,30.10,NNE,20,2.0,6.0,50,0.00,CLR,SCT,0.00,0.0,WeatherDisplay:10.37,2013-04-04 08:00:00,
2013-04-04 04:10:00,30.8,14.3,30.10,North,351,1.0,6.0,50,0.00,CLR,SCT,0.00,0.0,WeatherDisplay:10.37,2013-04-04 08:10:00,
2013-04-04 04:15:00,30.7,14.3,30.10,North,352,0.0,2.0,50,0.00,CLR,SCT,0.00,0.0,WeatherDisplay:10.37,2013-04-04 08:15:00,
2013-04-04 04:25:00,30.6,14.1,30.10,NNE,18,0.0,2.0,50,0.00,CLR,SCT,0.00,0.0,WeatherDisplay:10.37,2013-04-04 08:25:00,
2013-04-04 04:30:00,30.4,13.9,30.10,SW,229,1.0,4.0,50,0.00,CLR,SCT,0.00,0.0,WeatherDisplay:10.37,2013-04-04 08:30:00,
2013-04-04 04:40:00,30.1,14.1,30.11,SW,217,0.0,3.0,51,0.00,CLR,SCT,0.00,0.0,WeatherDisplay:10.37,2013-04-04 08:40:00,
2013-04-04 04:45:00,30.0,15.3,30.11,SW,218,0.0,3.0,54,0.00,CLR,SCT,0.00,0.0,WeatherDisplay:10.37,2013-04-04 08:45:00,
2013-04-04 04:55:00,29.7,14.6,30.11,ESE,111,1.0,3.0,53,0.00,CLR,SCT,0.00,0.0,WeatherDisplay:10.37,2013-04-04 08:55:00,
2013-04-04 05:00:00,29.5,14.9,30.11,South,172,1.0,3.0,54,0.00,CLR,SCT,0.00,0.0,WeatherDisplay:10.37,2013-04-04 09:00:00,
2013-04-04 05:10:00,29.3,15.1,30.12,NE,54,1.0,3.0,55,0.00,CLR,SCT,0.00,0.0,WeatherDisplay:10.37,2013-04-04 09:10:00,
2013-04-04 05:15:00,29.1,14.9,30.12,North,11,0.0,2.0,55,0.00,CLR,SCT,0.00,0.0,WeatherDisplay:10.37,2013-04-04 09:15:00,
2013-04-04 05:25:00,28.9,15.2,30.12,NW,309,0.0,2.0,56,0.00,CLR,SCT,0.00,0.0,WeatherDisplay:10.37,2013-04-04 09:25:00,
2013-04-04 05:30:00,28.7,15.4,30.12,WNW,283,0.0,2.0,57,0.00,CLR,SCT,0.00,0.0,WeatherDisplay:10.37,2013-04-04 09:30:00,
2013-04-04 05:40:00,28.9,15.2,30.13,North,353,1.0,2.0,56,0.00,CLR,SCT,0.00,0.0,WeatherDisplay:10.37,2013-04-04 09:40:00,
2013-04-04 05:45:00,29.3,15.1,30.14,NE,44,0.0,3.0,55,0.00,CLR,SCT,0.00,0.0,WeatherDisplay:10.37,2013-04-04 09:45:00,
2013-04-04 05:55:00,29.7,14.6,30.15,East,83,1.0,2.0,53,0.00,CLR,SCT,0.00,0.0,WeatherDisplay:10.37,2013-04-04 09:55:00,
2013-04-04 06:05:00,29.7,14.6,30.15,East,79,0.0,1.0,53,0.00,CLR,SCT,0.00,0.0,WeatherDisplay:10.37,2013-04-04 10:05:00,
2013-04-04 06:15:00,28.6,14.4,30.16,North,11,1.0,3.0,55,0.00,CLR,SCT,0.00,0.0,WeatherDisplay:10.37,2013-04-04 10:15:00,
2013-04-04 06:25:00,28.5,14.4,30.16,NNE,13,0.0,2.0,55,0.00,CLR,SCT,0.00,0.0,WeatherDisplay:10.37,2013-04-04 10:25:00,
2013-04-04 06:30:00,28.4,14.3,30.16,NE,41,1.0,2.0,55,0.00,CLR,SCT,0.00,0.0,WeatherDisplay:10.37,2013-04-04 10:30:00,
2013-04-04 06:40:00,29.0,15.2,30.17,ESE,106,0.0,2.0,56,0.00,CLR,SCT,0.00,0.0,WeatherDisplay:10.37,2013-04-04 10:40:00,
2013-04-04 06:45:00,29.5,14.9,30.17,NNW,345,0.0,2.0,54,0.00,CLR,SCT,0.00,0.0,WeatherDisplay:10.37,2013-04-04 10:45:00,
2013-04-04 06:55:00,30.6,15.5,30.17,East,88,0.0,2.0,53,0.00,CLR,SCT,0.00,0.0,WeatherDisplay:10.37,2013-04-04 10:55:00,
2013-04-04 07:00:00,31.4,15.8,30.17,West,277,0.0,2.0,52,0.00,CLR,SCT,0.00,0.0,WeatherDisplay:10.37,2013-04-04 11:00:00,
2013-04-04 07:10:00,31.7,15.6,30.18,NNW,348,1.0,2.0,51,0.00,CLR,SCT,0.00,0.0,WeatherDisplay:10.37,2013-04-04 11:10:00,
2013-04-04 07:15:00,31.6,15.6,30.18,NNW,330,1.0,6.0,51,0.00,CLR,SCT,0.00,0.0,WeatherDisplay:10.37,2013-04-04 11:15:00,
2013-04-04 07:25:00,32.0,15.9,30.18,NNW,327,1.0,2.0,51,0.00,CLR,SCT,0.00,0.0,WeatherDisplay:10.37,2013-04-04 11:25:00,
2013-04-04 07:30:00,32.1,16.4,30.19,NW,313,0.0,4.0,52,0.00,CLR,SCT,0.00,0.0,WeatherDisplay:10.37,2013-04-04 11:30:00,
2013-04-04 07:40:00,32.7,16.1,30.19,NNW,327,1.0,6.0,50,0.00,CLR,SCT,0.00,0.0,WeatherDisplay:10.37,2013-04-04 11:40:00,
2013-04-04 07:45:00,33.5,16.4,30.19,NNW,337,1.0,3.0,49,0.00,CLR,SCT,0.00,0.0,WeatherDisplay:10.37,2013-04-04 11:45:00,
2013-04-04 07:55:00,34.0,15.8,30.20,NW,315,3.0,8.0,47,0.00,CLR,SCT,0.00,0.0,WeatherDisplay:10.37,2013-04-04 11:55:00,
2013-04-04 08:00:00,34.1,15.9,30.20,NNW,331,2.0,6.0,47,0.00,CLR,SCT,0.00,0.0,WeatherDisplay:10.37,2013-04-04 12:00:00,
2013-04-04 08:10:00,33.1,14.0,30.20,East,95,3.0,6.0,45,0.00,CLR,SCT,0.00,0.0,WeatherDisplay:10.37,2013-04-04 12:10:00,
2013-04-04 08:15:00,36.5,16.7,30.20,East,90,2.0,8.0,44,0.00,CLR,SCT,0.00,0.0,WeatherDisplay:10.37,2013-04-04 12:15:00,
2013-04-04 08:25:00,36.9,16.4,30.20,NNW,327,2.0,7.0,43,0.00,CLR,SCT,0.00,0.0,WeatherDisplay:10.37,2013-04-04 12:25:00,
2013-04-04 08:30:00,36.5,15.6,30.20,NNW,332,2.0,8.0,42,0.00,CLR,SCT,0.00,0.0,WeatherDisplay:10.37,2013-04-04 12:30:00,
2013-04-04 08:40:00,36.9,15.9,30.20,North,357,3.0,8.0,42,0.00,CLR,SCT,0.00,0.0,WeatherDisplay:10.37,2013-04-04 12:40:00,
2013-04-04 08:45:00,37.4,15.8,30.20,North,8,1.0,9.0,41,0.00,CLR,SCT,0.00,0.0,WeatherDisplay:10.37,2013-04-04 12:45:00,
2013-04-04 08:55:00,38.3,15.4,30.20,North,10,5.0,10.0,39,0.00,CLR,SCT,0.00,0.0,WeatherDisplay:10.37,2013-04-04 12:55:00,
2013-04-04 09:00:00,39.7,15.5,30.19,NNE,21,1.0,14.0,37,0.00,CLR,SCT,0.00,0.0,WeatherDisplay:10.37,2013-04-04 13:00:00,
2013-04-04 09:10:00,41.6,15.2,30.20,NW,320,3.0,10.0,34,0.00,CLR,SCT,0.00,0.0,WeatherDisplay:10.37,2013-04-04 13:10:00,
2013-04-04 09:15:00,40.7,13.1,30.19,North,354,5.0,13.0,32,0.00,CLR,SCT,0.00,0.0,WeatherDisplay:10.37,2013-04-04 13:15:00,
2013-04-04 09:25:00,39.9,13.1,30.19,NNE,26,7.0,14.0,33,0.00,CLR,SCT,0.00,0.0,WeatherDisplay:10.37,2013-04-04 13:25:00,
2013-04-04 09:30:00,39.9,13.1,30.20,North,11,3.0,14.0,33,0.00,CLR,SCT,0.00,0.0,WeatherDisplay:10.37,2013-04-04 13:30:00,
2013-04-04 09:40:00,41.8,13.4,30.20,NNW,346,6.0,12.0,31,0.00,CLR,SCT,0.00,0.0,WeatherDisplay:10.37,2013-04-04 13:40:00,
2013-04-04 09:45:00,42.2,12.1,30.19,NNW,347,5.0,13.0,29,0.00,CLR,SCT,0.00,0.0,WeatherDisplay:10.37,2013-04-04 13:45:00,
2013-04-04 09:55:00,43.9,12.8,30.18,NNE,22,5.0,13.0,28,0.00,CLR,SCT,0.00,0.0,WeatherDisplay:10.37,2013-04-04 13:55:00,
2013-04-04 10:00:00,44.1,12.2,30.18,North,6,7.0,14.0,27,0.00,CLR,SCT,0.00,0.0,WeatherDisplay:10.37,2013-04-04 14:00:00,
2013-04-04 10:10:00,44.1,12.2,30.18,NNW,347,2.0,13.0,27,0.00,CLR,SCT,0.00,0.0,WeatherDisplay:10.37,2013-04-04 14:10:00,
2013-04-04 10:15:00,45.0,12.2,30.18,North,6,5.0,9.0,26,0.00,CLR,SCT,0.00,0.0,WeatherDisplay:10.37,2013-04-04 14:15:00,
2013-04-04 10:25:00,45.3,11.5,30.18,North,5,5.0,14.0,25,0.00,CLR,SCT,0.00,0.0,WeatherDisplay:10.37,2013-04-04 14:25:00,
2013-04-04 10:30:00,45.1,13.1,30.17,NNE,22,2.0,10.0,27,0.00,CLR,SCT,0.00,0.0,WeatherDisplay:10.37,2013-04-04 14:30:00,
2013-04-04 10:40:00,46.0,12.1,30.17,North,3,3.0,15.0,25,0.00,CLR,SCT,0.00,0.0,WeatherDisplay:10.37,2013-04-04 14:40:00,
2013-04-04 10:45:00,46.2,12.3,30.17,North,10,7.0,15.0,25,0.00,CLR,SCT,0.00,0.0,WeatherDisplay:10.37,2013-04-04 14:45:00,
2013-04-04 10:55:00,47.1,12.1,30.17,NNE,13,3.0,9.0,24,0.00,CLR,SCT,0.00,0.0,WeatherDisplay:10.37,2013-04-04 14:55:00,
2013-04-04 11:00:00,47.7,11.7,30.17,NE,36,1.0,8.0,23,0.00,CLR,SCT,0.00,0.0,WeatherDisplay:10.37,2013-04-04 15:00:00,
2013-04-04 11:10:00,48.9,11.7,30.15,NNE,12,7.0,14.0,22,0.00,CLR,SCT,0.00,0.0,WeatherDisplay:10.37,2013-04-04 15:10:00,
2013-04-04 11:15:00,49.5,14.1,30.15,NNE,13,1.0,14.0,24,0.00,CLR,SCT,0.00,0.0,WeatherDisplay:10.37,2013-04-04 15:15:00,
2013-04-04 11:25:00,50.7,12.1,30.15,North,353,7.0,13.0,21,0.00,CLR,SCT,0.00,0.0,WeatherDisplay:10.37,2013-04-04 15:25:00,
2013-04-04 11:30:00,51.2,14.6,30.14,North,356,1.0,8.0,23,0.00,CLR,SCT,0.00,0.0,WeatherDisplay:10.37,2013-04-04 15:30:00,
2013-04-04 11:40:00,52.2,14.4,30.14,NE,40,2.0,10.0,22,0.00,CLR,SCT,0.00,0.0,WeatherDisplay:10.37,2013-04-04 15:40:00,
2013-04-04 11:45:00,52.7,11.5,30.14,NE,37,1.0,9.0,19,0.00,CLR,SCT,0.00,0.0,WeatherDisplay:10.37,2013-04-04 15:45:00,
2013-04-04 11:55:00,52.8,12.8,30.14,NE,49,2.0,8.0,20,0.00,CLR,SCT,0.00,0.0,WeatherDisplay:10.37,2013-04-04 15:55:00,
2013-04-04 12:00:00,53.3,12.0,30.14,North,3,3.0,10.0,19,0.00,CLR,SCT,0.00,0.0,WeatherDisplay:10.37,2013-04-04 16:00:00,
2013-04-04 12:10:00,53.4,12.1,30.13,NNW,329,1.0,3.0,19,0.00,CLR,SCT,0.00,0.0,WeatherDisplay:10.37,2013-04-04 16:10:00,
2013-04-04 12:15:00,54.4,15.2,30.12,NNE,18,1.0,5.0,21,0.00,CLR,SCT,0.00,0.0,WeatherDisplay:10.37,2013-04-04 16:15:00,
2013-04-04 12:25:00,54.4,11.7,30.12,SE,146,2.0,13.0,18,0.00,CLR,SCT,0.00,0.0,WeatherDisplay:10.37,2013-04-04 16:25:00,
2013-04-04 12:30:00,54.6,13.1,30.12,SE,140,1.0,6.0,19,0.00,CLR,SCT,0.00,0.0,WeatherDisplay:10.37,2013-04-04 16:30:00,
2013-04-04 12:40:00,54.8,15.6,30.11,ENE,65,1.0,3.0,21,0.00,CLR,SCT,0.00,0.0,WeatherDisplay:10.37,2013-04-04 16:40:00,
2013-04-04 12:45:00,55.2,14.8,30.11,East,100,2.0,6.0,20,0.00,CLR,SCT,0.00,0.0,WeatherDisplay:10.37,2013-04-04 16:45:00,
2013-04-04 12:55:00,53.8,11.2,30.11,ENE,77,2.0,9.0,18,0.00,CLR,SCT,0.00,0.0,WeatherDisplay:10.37,2013-04-04 16:55:00,
2013-04-04 13:00:00,54.5,11.8,30.11,NE,51,1.0,9.0,18,0.00,CLR,SCT,0.00,0.0,WeatherDisplay:10.37,2013-04-04 17:00:00,
2013-04-04 13:10:00,55.6,13.9,30.11,East,98,1.0,6.0,19,0.00,CLR,SCT,0.00,0.0,WeatherDisplay:10.37,2013-04-04 17:10:00,
2013-04-04 13:15:00,56.4,13.4,30.10,West,261,2.0,8.0,18,0.00,CLR,SCT,0.00,0.0,WeatherDisplay:10.37,2013-04-04 17:15:00,
2013-04-04 13:25:00,57.4,12.9,30.09,SW,216,2.0,8.0,17,0.00,CLR,SCT,0.00,0.0,WeatherDisplay:10.37,2013-04-04 17:25:00,
2013-04-04 13:30:00,57.4,12.9,30.09,SE,146,2.0,7.0,17,0.00,CLR,SCT,0.00,0.0,WeatherDisplay:10.37,2013-04-04 17:30:00,
2013-04-04 13:40:00,55.8,10.2,30.08,East,101,3.0,9.0,16,0.00,CLR,SCT,0.00,0.0,WeatherDisplay:10.37,2013-04-04 17:40:00,
2013-04-04 13:45:00,55.9,11.7,30.08,ESE,112,2.0,6.0,17,0.00,CLR,SCT,0.00,0.0,WeatherDisplay:10.37,2013-04-04 17:45:00,
2013-04-04 13:55:00,57.1,13.9,30.08,NNE,25,3.0,9.0,18,0.00,CLR,SCT,0.00,0.0,WeatherDisplay:10.37,2013-04-04 17:55:00,
2013-04-04 14:00:00,58.2,16.1,30.08,North,2,3.0,8.0,19,0.00,CLR,SCT,0.00,0.0,WeatherDisplay:10.37,2013-04-04 18:00:00,
2013-04-04 14:10:00,59.3,15.8,30.07,South,188,3.0,10.0,18,0.00,CLR,SCT,0.00,0.0,WeatherDisplay:10.37,2013-04-04 18:10:00,
2013-04-04 14:15:00,57.9,14.6,30.07,NNE,24,3.0,10.0,18,0.00,CLR,SCT,0.00,0.0,WeatherDisplay:10.37,2013-04-04 18:15:00,
2013-04-04 14:25:00,57.0,12.6,30.06,ENE,71,3.0,13.0,17,0.00,CLR,SCT,0.00,0.0,WeatherDisplay:10.37,2013-04-04 18:25:00,
2013-04-04 14:30:00,57.0,12.6,30.06,NNE,23,3.0,8.0,17,0.00,CLR,SCT,0.00,0.0,WeatherDisplay:10.37,2013-04-04 18:30:00,
2013-04-04 14:40:00,58.3,13.6,30.06,NNE,22,1.0,9.0,17,0.00,CLR,SCT,0.00,0.0,WeatherDisplay:10.37,2013-04-04 18:40:00,
2013-04-04 14:45:00,58.3,12.3,30.06,ESE,119,6.0,13.0,16,0.00,CLR,SCT,0.00,0.0,WeatherDisplay:10.37,2013-04-04 18:45:00,
2013-04-04 14:50:00,57.8,11.8,30.05,ESE,115,3.0,12.0,16,0.00,CLR,SCT,0.00,0.0,WeatherDisplay:10.37,2013-04-04 18:50:00,
2013-04-04 15:00:00,57.4,11.5,30.05,SSE,147,3.0,8.0,16,0.00,CLR,SCT,0.00,0.0,WeatherDisplay:10.37,2013-04-04 19:00:00,
2013-04-04 15:10:00,58.9,15.4,30.03,East,90,2.0,8.0,18,0.00,CLR,SCT,0.00,0.0,WeatherDisplay:10.37,2013-04-04 19:10:00,
2013-04-04 15:15:00,59.3,14.4,30.03,NW,325,3.0,8.0,17,0.00,CLR,SCT,0.00,0.0,WeatherDisplay:10.37,2013-04-04 19:15:00,
2013-04-04 15:25:00,58.1,14.8,30.03,West,270,3.0,7.0,18,0.00,CLR,SCT,0.00,0.0,WeatherDisplay:10.37,2013-04-04 19:25:00,
2013-04-04 15:30:00,58.1,14.8,30.03,West,273,3.0,6.0,18,0.00,CLR,SCT,0.00,0.0,WeatherDisplay:10.37,2013-04-04 19:30:00,
2013-04-04 15:40:00,58.2,16.1,30.02,West,269,2.0,8.0,19,0.00,CLR,SCT,0.00,0.0,WeatherDisplay:10.37,2013-04-04 19:40:00,
2013-04-04 15:45:00,58.1,13.5,30.02,NNW,329,5.0,9.0,17,0.00,CLR,SCT,0.00,0.0,WeatherDisplay:10.37,2013-04-04 19:45:00,
2013-04-04 15:50:00,57.2,14.0,30.01,East,84,1.0,11.0,18,0.00,CLR,SCT,0.00,0.0,WeatherDisplay:10.37,2013-04-04 19:50:00,
2013-04-04 16:00:00,56.0,14.3,30.01,West,266,6.0,12.0,19,0.00,CLR,SCT,0.00,0.0,WeatherDisplay:10.37,2013-04-04 20:00:00,
2013-04-04 16:11:00,55.3,13.7,30.00,West,267,5.0,10.0,19,0.00,CLR,SCT,0.00,0.0,WeatherDisplay:10.37,2013-04-04 20:11:00,
2013-04-04 16:20:00,55.4,14.9,30.00,WNW,303,2.0,7.0,20,0.00,CLR,SCT,0.00,0.0,WeatherDisplay:10.37,2013-04-04 20:20:00,
2013-04-04 16:25:00,55.8,15.2,30.00,NW,324,1.0,4.0,20,0.00,CLR,SCT,0.00,0.0,WeatherDisplay:10.37,2013-04-04 20:25:00,
2013-04-04 16:30:00,55.4,14.9,29.99,SE,141,1.0,11.0,20,0.00,CLR,SCT,0.00,0.0,WeatherDisplay:10.37,2013-04-04 20:30:00,
2013-04-04 16:40:00,55.2,14.8,29.99,ESE,105,3.0,9.0,20,0.00,CLR,SCT,0.00,0.0,WeatherDisplay:10.37,2013-04-04 20:40:00,
2013-04-04 17:34:00,55.3,16.0,29.98,WNW,290,3.0,9.0,21,0.00,CLR,SCT,0.00,0.0,WeatherDisplay:10.37,2013-04-04 21:34:00,
2013-04-04 18:00:00,55.6,16.2,29.97,WNW,286,5.0,7.0,21,0.00,CLR,SCT,0.00,0.0,WeatherDisplay:10.37,2013-04-04 22:00:00,
2013-04-04 18:42:00,53.2,16.3,29.96,SSE,159,2.0,8.0,23,0.00,CLR,SCT,0.00,0.0,WeatherDisplay:10.37,2013-04-04 22:42:00,
2013-04-04 18:47:00,53.1,15.2,29.97,SSE,151,2.0,4.0,22,0.00,CLR,SCT,0.00,0.0,WeatherDisplay:10.37,2013-04-04 22:47:00,
2013-04-04 18:57:00,52.9,16.0,29.96,ESE,117,1.0,3.0,23,0.00,CLR,SCT,0.00,0.0,WeatherDisplay:10.37,2013-04-04 22:57:00,
2013-04-04 19:04:00,52.6,15.8,29.96,ESE,113,1.0,5.0,23,0.00,CLR,SCT,0.00,0.0,WeatherDisplay:10.37,2013-04-04 23:04:00,
2013-04-04 19:12:00,52.1,15.4,29.95,ESE,120,1.0,2.0,23,0.00,CLR,SCT,0.00,0.0,WeatherDisplay:10.37,2013-04-04 23:12:00,
2013-04-04 19:38:00,49.8,17.1,29.96,WSW,243,0.0,3.0,27,0.00,CLR,SCT,0.00,0.0,WeatherDisplay:10.37,2013-04-04 23:38:00,
2013-04-04 19:49:00,48.9,18.8,29.96,SSW,204,1.0,3.0,30,0.00,CLR,SCT,0.00,0.0,WeatherDisplay:10.37,2013-04-04 23:49:00,
2013-04-04 20:10:00,49.3,18.3,29.96,SE,141,1.0,4.0,29,0.00,CLR,SCT,0.00,0.0,WeatherDisplay:10.37,2013-04-05 00:10:00,
2013-04-04 20:15:00,49.5,17.7,29.96,SE,140,1.0,3.0,28,0.00,CLR,SCT,0.00,0.0,WeatherDisplay:10.37,2013-04-05 00:15:00,
2013-04-04 20:24:00,49.5,17.7,29.96,SE,142,1.0,3.0,28,0.00,CLR,SCT,0.00,0.0,WeatherDisplay:10.37,2013-04-05 00:24:00,
2013-04-04 22:07:00,46.3,21.4,29.97,SSW,196,1.0,6.0,37,0.00,CLR,SCT,0.00,0.0,WeatherDisplay:10.37,2013-04-05 02:07:00,
2013-04-04 22:17:00,45.6,21.4,29.97,SSE,162,3.0,8.0,38,0.00,CLR,SCT,0.00,0.0,WeatherDisplay:10.37,2013-04-05 02:17:00,
2013-04-04 22:33:00,45.1,21.6,29.96,SSE,162,1.0,2.0,39,0.00,CLR,SCT,0.00,0.0,WeatherDisplay:10.37,2013-04-05 02:33:00,
2013-04-04 23:37:00,43.8,21.6,29.94,SW,217,2.0,5.0,41,0.00,CLR,SCT,0.00,0.0,WeatherDisplay:10.37,2013-04-05 03:37:00,
2013-04-04 23:52:00,43.8,21.6,29.94,SW,223,2.0,5.0,41,0.00,CLR,SCT,0.00,0.0,WeatherDisplay:10.37,2013-04-05 03:52:00,